Weather History for KOWA - January, 2013

Change the Weather History Date:

Monday, January 7, 2013

  Actual Average Record
Temperature  
Mean Temperature 28 °F -  
Max Temperature 35 °F 17 °F 55 °F (2003)
Min Temperature 21 °F 0 °F -25 °F (1986)
Degree Days  
Heating Degree Days 37    
Moisture  
Dew Point 19 °F    
Average Humidity 68    
Maximum Humidity 86    
Minimum Humidity 52    
Precipitation  
Precipitation 0.00 in - - ()
Sea Level Pressure  
Sea Level Pressure 29.94 in    
Wind  
Wind Speed 16 mph (SSW)    
Max Wind Speed 25 mph    
Max Gust Speed 34 mph    
Visibility 10 miles    
Events      
Averages and records for this station are not official NWS values.
T = Trace of Precipitation, MM = Missing Value Source: NWS Daily Summary

Daily Weather History Graph

Daily Weather History Graph

Search for Another Location

Airport or City:

Trip Planner

Search our weather history database for the weather conditions in past years. The results will help you decide how hot, cold, wet, or windy it might be!

Date:

Astronomy

Jan. 07, 2013 Rise Set
Actual Time 7:47 AM CST 4:51 PM CST
Civil Twilight 7:15 AM CST 5:24 PM CST
Nautical Twilight 6:38 AM CST 6:00 PM CST
Astronomical Twilight 6:03 AM CST 6:35 PM CST
Moon 3:09 AM CST (1/7) 1:04 PM CST (1/7)
Length of Visible Light 10h 09m
Length of Day
9h 03m
Waning Crescent, 22% of the Moon is Illuminated
Jan 7
Waning Crescent
Jan 11
New
Jan 18
First Quarter
Jan 26
Full
Feb 3
Last Quarter

Hourly Weather History & Observations

Time (CST) Temp. Windchill Dew Point Humidity Pressure Visibility Wind Dir Wind Speed Gust Speed Precip Events Conditions
12:13 AM 21.2 °F 6.4 °F 12.2 °F 68% 30.03 in 10.0 mi South 18.4 mph - N/A   Clear
12:33 AM 21.2 °F 7.3 °F 12.2 °F 68% 30.02 in 10.0 mi South 16.1 mph 20.7 mph N/A   Clear
12:53 AM 21.2 °F 6.0 °F 12.2 °F 68% 30.00 in 10.0 mi SSE 19.6 mph - N/A   Clear
1:14 AM 24.8 °F 10.0 °F 14.0 °F 64% 29.98 in 10.0 mi SSE 21.9 mph 29.9 mph N/A   Clear
1:34 AM 24.8 °F 11.5 °F 14.0 °F 64% 29.98 in 10.0 mi SSE 17.3 mph 26.5 mph N/A   Clear
1:54 AM 24.8 °F 10.7 °F 14.0 °F 64% 29.97 in 10.0 mi South 19.6 mph 27.6 mph N/A   Clear
2:13 AM 24.8 °F 10.3 °F 14.0 °F 64% 29.95 in 10.0 mi SSE 20.7 mph 26.5 mph N/A   Clear
2:33 AM 24.8 °F 12.4 °F 15.8 °F 69% 29.96 in 10.0 mi South 15.0 mph - N/A   Clear
2:54 AM 24.8 °F 10.7 °F 14.0 °F 64% 29.95 in 10.0 mi South 19.6 mph 26.5 mph N/A   Clear
3:13 AM 26.6 °F 13.1 °F 15.8 °F 64% 29.94 in 10.0 mi South 19.6 mph 27.6 mph N/A   Clear
3:34 AM 24.8 °F 10.0 °F 14.0 °F 64% 29.92 in 10.0 mi South 21.9 mph - N/A   Clear
3:54 AM 26.6 °F 12.4 °F 15.8 °F 64% 29.92 in 10.0 mi South 21.9 mph 26.5 mph N/A   Clear
4:14 AM 26.6 °F 12.7 °F 15.8 °F 64% 29.91 in 10.0 mi South 20.7 mph 27.6 mph N/A   Clear
4:53 AM 30.2 °F 18.5 °F 17.6 °F 60% 29.90 in 10.0 mi South 17.3 mph 34.5 mph N/A   Clear
5:13 AM 33.8 °F 21.0 °F 19.4 °F 56% 29.91 in 10.0 mi SSW 25.3 mph 31.1 mph N/A   Clear
5:33 AM 33.8 °F 22.2 °F 19.4 °F 56% 29.91 in 10.0 mi SSW 20.7 mph - N/A   Clear
5:54 AM 33.8 °F 21.6 °F 17.6 °F 52% 29.93 in 10.0 mi SSW 23.0 mph 29.9 mph N/A   Clear
6:13 AM 33.8 °F 21.6 °F 17.6 °F 52% 29.93 in 10.0 mi SSW 23.0 mph 29.9 mph N/A   Clear
6:34 AM 30.2 °F 17.1 °F 17.6 °F 60% 29.94 in 10.0 mi SSW 21.9 mph - N/A   Clear
6:53 AM 30.2 °F 16.5 °F 17.6 °F 60% 29.93 in 10.0 mi SSW 24.2 mph - N/A   Clear
7:13 AM 30.2 °F 18.1 °F 17.6 °F 60% 29.93 in 10.0 mi SSW 18.4 mph 27.6 mph N/A   Clear
7:34 AM 30.2 °F 17.1 °F 17.6 °F 60% 29.92 in 10.0 mi SSW 21.9 mph - N/A   Clear
7:54 AM 30.2 °F 18.1 °F 17.6 °F 60% 29.92 in 10.0 mi SSW 18.4 mph - N/A   Clear
8:13 AM 30.2 °F 18.1 °F 17.6 °F 60% 29.92 in 10.0 mi SSW 18.4 mph - N/A   Clear
8:33 AM 30.2 °F 17.4 °F 17.6 °F 60% 29.92 in 10.0 mi SSW 20.7 mph - N/A   Clear
8:53 AM 30.2 °F 17.4 °F 19.4 °F 64% 29.92 in 10.0 mi SSW 20.7 mph 27.6 mph N/A   Clear
9:13 AM 30.2 °F 17.1 °F 19.4 °F 64% 29.93 in 10.0 mi SSW 21.9 mph 26.5 mph N/A   Clear
9:34 AM 30.2 °F 17.4 °F 19.4 °F 64% 29.93 in 10.0 mi SSW 20.7 mph 24.2 mph N/A   Clear
9:54 AM 30.2 °F 18.1 °F 19.4 °F 64% 29.94 in 10.0 mi SSW 18.4 mph - N/A   Clear
10:14 AM 32.0 °F 20.5 °F 21.2 °F 64% 29.94 in 10.0 mi SSW 18.4 mph - N/A   Clear
10:34 AM 33.8 °F 24.3 °F 21.2 °F 60% 29.95 in 10.0 mi SW 13.8 mph - N/A   Clear
10:53 AM 33.8 °F 24.8 °F 21.2 °F 60% 29.94 in 10.0 mi SSW 12.7 mph - N/A   Clear
11:34 AM 33.8 °F 24.8 °F 21.2 °F 60% 29.93 in 10.0 mi SW 12.7 mph - N/A   Clear
11:54 AM 33.8 °F 23.5 °F 21.2 °F 60% 29.93 in 10.0 mi SW 16.1 mph - N/A   Clear
12:34 PM 33.8 °F 26.4 °F 23.0 °F 65% 29.91 in 10.0 mi SW 9.2 mph - N/A   Clear
1:14 PM 35.6 °F 27.1 °F 23.0 °F 60% 29.91 in 10.0 mi SW 12.7 mph - N/A   Clear
1:54 PM 35.6 °F 28.0 °F 23.0 °F 60% 29.92 in 10.0 mi SSW 10.4 mph - N/A   Clear
2:14 PM 35.6 °F 28.0 °F 24.8 °F 65% 29.91 in 10.0 mi SSW 10.4 mph - N/A   Clear
2:34 PM 35.6 °F 28.6 °F 24.8 °F 65% 29.92 in 10.0 mi SSW 9.2 mph - N/A   Clear
2:54 PM 35.6 °F 29.9 °F 24.8 °F 65% 29.93 in 10.0 mi SSW 6.9 mph - N/A   Clear
3:14 PM 35.6 °F 29.2 °F 24.8 °F 65% 29.93 in 10.0 mi SSW 8.1 mph - N/A   Clear
3:34 PM 33.8 °F 27.0 °F 24.8 °F 70% 29.93 in 10.0 mi SSW 8.1 mph - N/A   Clear
3:54 PM 33.8 °F 26.4 °F 24.8 °F 70% 29.93 in 10.0 mi South 9.2 mph - N/A   Clear
4:14 PM 33.8 °F 27.0 °F 24.8 °F 70% 29.94 in 10.0 mi South 8.1 mph - N/A   Clear
4:34 PM 30.2 °F 23.4 °F 23.0 °F 75% 29.94 in 10.0 mi SSW 6.9 mph - N/A   Clear
4:54 PM 30.2 °F 23.4 °F 21.2 °F 69% 29.94 in 10.0 mi SSW 6.9 mph - N/A   Clear
5:14 PM 28.4 °F 21.2 °F 21.2 °F 74% 29.94 in 10.0 mi SSW 6.9 mph - N/A   Clear
5:34 PM 28.4 °F 23.3 °F 21.2 °F 74% 29.95 in 10.0 mi SSW 4.6 mph - N/A   Clear
5:54 PM 26.6 °F 19.1 °F 21.2 °F 80% 29.95 in 10.0 mi SSW 6.9 mph - N/A   Clear
6:14 PM 26.6 °F 20.0 °F 19.4 °F 74% 29.95 in 10.0 mi SSW 5.8 mph - N/A   Clear
6:34 PM 28.4 °F 23.3 °F 21.2 °F 74% 29.96 in 10.0 mi South 4.6 mph - N/A   Clear
6:54 PM 26.6 °F 17.5 °F 19.4 °F 74% 29.95 in 10.0 mi SSW 9.2 mph - N/A   Clear
7:14 PM 26.6 °F 18.2 °F 21.2 °F 80% 29.95 in 10.0 mi South 8.1 mph - N/A   Clear
7:34 PM 28.4 °F 23.3 °F 21.2 °F 74% 29.96 in 10.0 mi South 4.6 mph - N/A   Clear
7:54 PM 23.0 °F - 17.6 °F 80% 29.96 in 7.0 mi Calm Calm - N/A   Clear
8:14 PM 26.6 °F 21.2 °F 21.2 °F 80% 29.95 in 7.0 mi South 4.6 mph - N/A   Clear
8:34 PM 28.4 °F 19.7 °F 21.2 °F 74% 29.96 in 10.0 mi South 9.2 mph - N/A   Clear
8:54 PM 28.4 °F 21.2 °F 21.2 °F 74% 29.96 in 10.0 mi South 6.9 mph - N/A   Clear
9:14 PM 28.4 °F 21.2 °F 21.2 °F 74% 29.95 in 10.0 mi South 6.9 mph - N/A   Clear
9:34 PM 24.8 °F 20.5 °F 19.4 °F 80% 29.95 in 10.0 mi SSE 3.5 mph - N/A   Clear
9:54 PM 24.8 °F 19.1 °F 19.4 °F 80% 29.95 in 7.0 mi South 4.6 mph - N/A   Clear
10:14 PM 26.6 °F 20.0 °F 19.4 °F 74% 29.95 in 10.0 mi SSE 5.8 mph - N/A   Clear
10:34 PM 24.8 °F 20.5 °F 19.4 °F 80% 29.95 in 7.0 mi South 3.5 mph - N/A   Clear
10:54 PM 24.8 °F - 17.6 °F 74% 29.95 in 7.0 mi Calm Calm - N/A   Clear
11:14 PM 23.0 °F - 17.6 °F 80% 29.95 in 7.0 mi Calm Calm - N/A   Clear
11:34 PM 21.2 °F - 17.6 °F 86% 29.96 in 7.0 mi Calm Calm - N/A   Clear
11:54 PM 21.2 °F 16.4 °F 17.6 °F 86% 29.95 in 7.0 mi South 3.5 mph - N/A   Clear